Weather History for Three Rivers, MI

Change the Weather History Date:

Tuesday, August 27, 2013

  Actual Average Record
Temperature  
Mean Temperature 82 °F -  
Max Temperature 92 °F 81 °F 99 °F (1948)
Min Temperature 72 °F 59 °F 44 °F (1968)
Cooling Degree Days 17    
Growing Degree Days 32 (Base 50)    
Moisture  
Dew Point 70 °F    
Average Humidity 70    
Maximum Humidity 89    
Minimum Humidity 49    
Precipitation  
Precipitation 0.00 in - - ()
Sea Level Pressure  
Sea Level Pressure 29.96 in    
Wind  
Wind Speed 5 mph (SW)    
Max Wind Speed 14 mph    
Max Gust Speed 17 mph    
Visibility 9 miles    
Events Rain    
Averages and records for this station are not official NWS values.
T = Trace of Precipitation, MM = Missing Value Source: NWS Daily Summary

Daily Weather History Graph

Daily Weather History Graph

Search for Another Location

Airport:

Trip Planner

Search our weather history database for the weather conditions in past years. The results will help you decide how hot, cold, wet, or windy it might be!

Date:

Astronomy

Aug. 27, 2013 Rise Set
Actual Time 7:03 AM EDT 8:23 PM EDT
Civil Twilight 6:34 AM EDT 8:52 PM EDT
Nautical Twilight 5:59 AM EDT 9:27 PM EDT
Astronomical Twilight 5:22 AM EDT 10:04 PM EDT
Moon No Moon Rise 2:07 PM EDT (8/27)
Length of Visible Light 14h 18m
Length of Day
13h 20m
Waning Gibbous, 57% of the Moon is Illuminated
Aug 27
Waning Gibbous
Aug 28
Last Quarter
Sep 5
New
Sep 12
First Quarter
Sep 19
Full

Hourly Weather History & Observations

Time (EDT) Temp. Heat Index Dew Point Humidity Pressure Visibility Wind Dir Wind Speed Gust Speed Precip Events Conditions
12:15 AM 76.8 °F - 69.3 °F 77% 30.03 in 10.0 mi WSW 4.6 mph - N/A   Clear
12:35 AM 77.0 °F - 69.4 °F 77% 30.03 in 10.0 mi SW 4.6 mph - N/A   Clear
12:54 AM 76.5 °F - 69.4 °F 79% 30.02 in 10.0 mi WSW 3.5 mph - N/A   Clear
1:15 AM 76.3 °F - 69.3 °F 79% 30.02 in 10.0 mi WSW 3.5 mph - N/A   Scattered Clouds
1:34 AM 76.3 °F - 69.3 °F 79% 30.02 in 10.0 mi WSW 3.5 mph - N/A   Scattered Clouds
1:55 AM 76.1 °F - 69.3 °F 79% 30.02 in 10.0 mi SW 4.6 mph - N/A   Mostly Cloudy
2:15 AM 75.7 °F - 69.3 °F 80% 30.01 in 10.0 mi SW 3.5 mph - N/A   Mostly Cloudy
2:34 AM 75.7 °F - 69.3 °F 80% 30.02 in 10.0 mi SW 3.5 mph - N/A   Mostly Cloudy
2:55 AM 76.1 °F - 69.3 °F 79% 30.01 in 10.0 mi SW 3.5 mph - N/A   Scattered Clouds
3:15 AM 76.5 °F - 69.3 °F 78% 30.00 in 10.0 mi WSW 4.6 mph - N/A   Scattered Clouds
3:35 AM 77.0 °F - 68.9 °F 76% 30.00 in 10.0 mi WSW 4.6 mph - N/A   Scattered Clouds
3:55 AM 77.0 °F - 68.9 °F 76% 30.00 in 10.0 mi WSW 3.5 mph - N/A   Clear
4:15 AM 77.0 °F - 68.9 °F 76% 29.99 in 10.0 mi WSW 4.6 mph - N/A   Clear
4:35 AM 76.5 °F - 68.9 °F 77% 29.99 in 10.0 mi WSW 3.5 mph - N/A   Clear
4:54 AM 76.8 °F - 68.9 °F 76% 29.98 in 10.0 mi WSW 4.6 mph - N/A   Clear
5:15 AM 77.2 °F - 69.1 °F 76% 29.99 in 10.0 mi WSW 4.6 mph - N/A   Mostly Cloudy
5:35 AM 77.2 °F - 69.1 °F 76% 29.99 in 10.0 mi WSW 4.6 mph - N/A   Overcast
5:55 AM 76.8 °F - 69.1 °F 77% 29.98 in 10.0 mi SSW 3.5 mph - N/A   Mostly Cloudy
6:15 AM 73.8 °F - 69.1 °F 85% 29.99 in 10.0 mi South 4.6 mph - N/A   Scattered Clouds
6:34 AM 72.5 °F - 68.9 °F 88% 30.00 in 7.0 mi SSW 4.6 mph - N/A   Scattered Clouds
6:55 AM 72.5 °F - 68.9 °F 88% 30.01 in 7.0 mi SSW 4.6 mph - N/A   Mostly Cloudy
7:15 AM 72.7 °F - 68.9 °F 88% 30.02 in 7.0 mi Calm Calm - N/A   Mostly Cloudy
7:34 AM 72.1 °F - 68.9 °F 89% 30.02 in 7.0 mi Calm Calm - N/A   Mostly Cloudy
7:55 AM 73.0 °F - 69.1 °F 87% 30.02 in 7.0 mi Calm Calm - N/A Rain Light Rain
8:15 AM 72.7 °F - 69.3 °F 89% 30.03 in 5.0 mi NE 4.6 mph - N/A   Light Drizzle
8:34 AM 72.9 °F - 69.4 °F 89% 30.04 in 5.0 mi Calm Calm - N/A   Mostly Cloudy
8:55 AM 73.4 °F - 69.8 °F 88% 30.03 in 7.0 mi Calm Calm - N/A   Mostly Cloudy
9:15 AM 74.3 °F - 69.8 °F 86% 30.02 in 7.0 mi Calm Calm - N/A   Scattered Clouds
9:34 AM 75.0 °F - 70.7 °F 86% 30.01 in 7.0 mi South 3.5 mph - N/A   Clear
9:55 AM 77.0 °F - 70.9 °F 81% 30.01 in 7.0 mi SSW 5.8 mph - N/A   Clear
10:15 AM 77.5 °F - 71.4 °F 81% 30.00 in 10.0 mi SSW 8.1 mph - N/A   Clear
10:35 AM 78.3 °F - 71.8 °F 80% 30.00 in 10.0 mi SSW 5.8 mph - N/A   Clear
10:55 AM 79.0 °F - 72.0 °F 79% 30.01 in 10.0 mi SW 6.9 mph - N/A   Clear
11:14 AM 80.1 °F 84.0 °F 72.1 °F 77% 30.00 in 10.0 mi South 5.8 mph - N/A   Clear
11:35 AM 81.5 °F 86.1 °F 72.1 °F 73% 30.00 in 5.0 mi South 6.9 mph - N/A   Haze
11:55 AM 81.5 °F 86.1 °F 72.0 °F 73% 30.00 in 10.0 mi SW 6.9 mph - N/A   Clear
12:14 PM 81.5 °F 86.1 °F 72.0 °F 73% 29.99 in 10.0 mi SSW 9.2 mph - N/A   Clear
12:35 PM 81.9 °F 86.8 °F 72.5 °F 73% 29.99 in 10.0 mi SW 8.1 mph - N/A   Clear
12:55 PM 84.0 °F 90.2 °F 72.7 °F 69% 29.98 in 10.0 mi SW 9.2 mph - N/A   Clear
1:14 PM 83.7 °F 89.4 °F 72.7 °F 69% 29.97 in 4.0 mi SSW 8.1 mph - N/A   Haze
1:35 PM 85.5 °F 92.6 °F 73.6 °F 67% 29.97 in 10.0 mi SW 6.9 mph - N/A   Clear
1:55 PM 83.7 °F 89.4 °F 72.5 °F 69% 29.97 in 10.0 mi SSW 8.1 mph - N/A   Scattered Clouds
2:14 PM 85.1 °F 91.8 °F 72.9 °F 67% 29.97 in 10.0 mi SW 9.2 mph - N/A   Scattered Clouds
2:35 PM 86.7 °F 94.1 °F 73.2 °F 64% 29.96 in 10.0 mi SSW 10.4 mph - N/A   Clear
2:55 PM 87.8 °F 95.6 °F 73.2 °F 62% 29.95 in 10.0 mi SSW 8.1 mph - N/A   Clear
3:14 PM 89.6 °F 97.2 °F 72.5 °F 57% 29.94 in 10.0 mi WSW 5.8 mph 16.1 mph N/A   Clear
3:35 PM 89.6 °F 96.6 °F 72.1 °F 56% 29.93 in 10.0 mi SW 10.4 mph - N/A   Clear
3:54 PM 91.8 °F 98.6 °F 71.4 °F 51% 29.93 in 7.0 mi WSW 8.1 mph - N/A   Clear
4:15 PM 90.9 °F 98.3 °F 72.3 °F 54% 29.92 in 10.0 mi SSW 9.2 mph - N/A   Scattered Clouds
4:34 PM 91.2 °F 98.0 °F 71.4 °F 52% 29.92 in 10.0 mi WSW 8.1 mph - N/A   Scattered Clouds
4:55 PM 92.5 °F 99.0 °F 70.9 °F 49% 29.92 in 10.0 mi WSW 9.2 mph - N/A   Clear
5:15 PM 91.6 °F 97.7 °F 70.3 °F 50% 29.91 in 10.0 mi SW 10.4 mph 17.3 mph N/A   Scattered Clouds
5:34 PM 90.9 °F 96.7 °F 70.7 °F 51% 29.90 in 10.0 mi SW 12.7 mph - N/A   Scattered Clouds
5:55 PM 91.0 °F 96.6 °F 69.8 °F 50% 29.90 in 10.0 mi SW 13.8 mph - N/A   Scattered Clouds
6:15 PM 90.9 °F 95.8 °F 69.1 °F 49% 29.90 in 10.0 mi WSW 8.1 mph 17.3 mph N/A   Scattered Clouds
6:35 PM 90.7 °F 95.4 °F 69.1 °F 49% 29.90 in 10.0 mi SW 9.2 mph 17.3 mph N/A   Clear
6:55 PM 88.7 °F 94.8 °F 71.2 °F 56% 29.90 in 10.0 mi SW 9.2 mph - N/A   Clear
7:14 PM 88.2 °F 95.5 °F 72.5 °F 60% 29.90 in 10.0 mi SW 9.2 mph - N/A   Clear
7:35 PM 87.6 °F 94.8 °F 72.9 °F 61% 29.89 in 10.0 mi SW 9.2 mph - N/A   Clear
7:55 PM 87.8 °F 92.2 °F 69.3 °F 54% 29.90 in 10.0 mi SW 5.8 mph - N/A   Clear
8:14 PM 86.9 °F 91.0 °F 68.9 °F 55% 29.90 in 10.0 mi SW 6.9 mph - N/A   Clear
8:35 PM 86.0 °F 89.7 °F 68.9 °F 56% 29.90 in 10.0 mi SW 6.9 mph - N/A   Clear
8:55 PM 85.1 °F 89.1 °F 69.1 °F 59% 29.89 in 10.0 mi SW 6.9 mph - N/A   Clear
9:14 PM 84.6 °F 88.2 °F 68.9 °F 59% 29.88 in 10.0 mi SW 8.1 mph - N/A   Clear
9:35 PM 83.1 °F 87.1 °F 69.8 °F 64% 29.89 in 10.0 mi SW 6.9 mph - N/A   Clear
9:55 PM 82.9 °F 86.7 °F 69.8 °F 64% 29.89 in 10.0 mi SW 5.8 mph - N/A   Clear
10:14 PM 83.8 °F 87.8 °F 69.6 °F 62% 29.88 in 10.0 mi SW 10.4 mph - N/A   Clear
10:35 PM 83.7 °F 87.5 °F 69.4 °F 62% 29.87 in 10.0 mi SW 10.4 mph - N/A   Clear
10:55 PM 83.5 °F 87.4 °F 69.8 °F 63% 29.87 in 10.0 mi WSW 6.9 mph - N/A   Clear
11:15 PM 83.3 °F 87.4 °F 70.0 °F 64% 29.87 in 10.0 mi SW 8.1 mph - N/A   Clear
11:35 PM 82.8 °F 86.9 °F 70.2 °F 66% 29.86 in 10.0 mi WSW 6.9 mph - N/A   Clear
11:54 PM 83.3 °F 87.6 °F 70.5 °F 65% 29.87 in 10.0 mi WSW 5.8 mph - N/A   Clear